星链-4182 (STARLINK-4182 )

导读 | 豆包AI

STARLINK-4182是美国SpaceX公司星链(Starlink)卫星互联网星座中的一颗卫星,于2022年7月24日由猎鹰9号火箭发射升空。卫星质量约297千克,运行在高度约548公里的近地轨道,属于星链Group 4-16任务批次,同批次共发射48颗卫星。作为星链低轨通信星座的组成部分,它主要为全球偏远、基础设施缺失区域提供高速低延迟的宽带互联网接入服务,是SpaceX实现全球互联星座布局的重要单元。

Basic Information
目录编号:
53281
目录名称:
STARLINK-4182
国际标识:
2022-086AR
轨道中心:
EARTH
卫星名称:
星链-4182
卫星全名:
星链-4182 (STARLINK-4182 )
卫星状态:
已陨落 最后检测时间 2024-12-26
发射日期:
2022-07-24 UTC
国别 :
美国 (US)
星等 :
--
Orbit Information
数据来源 国际轨道数据
星历时间: 2024-12-27T02:53:42+0800
轨道信息已过期443天
半长轴: 6524.773km
偏心率: 0.0010686
轨道倾角: 53.195°
近地点辐角 224.566°
升交点赤经 330.708°
平近点角 225.730°
近地点: 139.665km
远地点: 153.611km
周期: 87.419分钟
每日圈数: 16.472318
Detailed Information
固有亮度:
5
最大亮度:
2.5
卫星平台:
Starlink v1.5
覆盖范围:
全球
运营商:
太空探索技术公司
运营商所在国:
美国
制造商(研发单位):
太空探索技术公司
制造商所在国:
美国
使用方式:
暂无
Satellite Introduction
星链(Starlink)计划是由太空探索技术公司(SpaceX)提出的一个巨型低轨卫星互联网星座项目,计划在2019年至2024年间在太空搭建由约1.2万颗卫星组成的“星链”网络,其中1584颗将部署在地球上空550千米处的近地轨道,并从2020年开始工作。该卫星仍在工作。